Regional Weather Roundup
Issued by NWS

Current Version | Previous Version | Text Only | Print | Product List | Glossary On
Versions: 1 2 3 4 5 6 7 8 9 10 11 12 13 14 15 16 17 18 19 20 21 22 23 24 25 26 27 28 29 30 31 32 33 34 35 36 37 38 39 40 41 42 43 44 45 46 47 48 49 50
850
ASUS42 KTBW 061816
RWRFL
FLORIDA REGIONAL WEATHER ROUNDUP
NATIONAL WEATHER SERVICE TAMPA BAY RUSKIN FL
100 PM EST TUE DEC 06 2016

NOTE: "FAIR" INDICATES FEW OR NO CLOUDS BELOW 12,000 FEET WITH NO
SIGNIFICANT WEATHER AND/OR OBSTRUCTIONS TO VISIBILITY.

FLZ001>010-012>015-112-114-115-061900-
PANHANDLE FLORIDA

CITY           SKY/WX    TMP DP  RH WIND       PRES   REMARKS
PENSACOLA      CLOUDY    65  54  67 W14       29.88F
PENSACOLA NAS  CLOUDY    64  54  69 W9        29.88F
MILTON NAS     PTSUNNY   63  54  72 W12       29.87
CRESTVIEW      CLOUDY    66  55  67 W12G18    29.88S
DUKE FIELD     PTSUNNY   65  33  29 W13       29.85F
VALPARAISO     PTSUNNY   69  54  60 W9G20     29.86F
MARY ESTHER    CLOUDY    66  50  55 W15       29.86F
TRI COUNTY     FAIR      72  58  61 W8        29.83F
PANAMA CITY    FAIR      69  56  62 W21G29    29.84S
TYNDALL AFB    MOSUNNY   70  60  70 W26       29.85F
APALACHICOLA   MOSUNNY   74  61  63 NW26G32   29.85F

STATION/POSITION SKY/WX   TEMP    WIND        PRES    WAVE   SWELL
                          AIR SEA DIR/SP/G            HT/PER HT/PER
                          (F)     (DEG/KT/KT) (MB)    (FT/S) (FT/S)
30.1N   87.6W              63 69  270/ 17/ 23 1012.4    8/ 7
29.2N   88.2W              63 75  280/ 17/ 21 1013.4F
28.8N   86.0W              77 75              1012.3    7/ 7
PANAMA CITY BEAC           66 68  280/ 29/ 32 1011.4
TOWER C                    71     290/ 22/ 24 1011.9F
28.5N   84.5W              76 75  270/ 17/ 21 1011.6    6/ 6

$$
FLZ011-016>038-118-127-128-134-139-239-061900-
NORTH FLORIDA

CITY           SKY/WX    TMP DP  RH WIND       PRES   REMARKS
MARIANNA       SUNNY     74  56  53 W17G26    29.81S
TALLAHASSEE    MOSUNNY   77  54  44 W18G29    29.80F
PERRY          SUNNY     79  62  55 SW22      29.82F
CROSS CITY     PTSUNNY   77  68  73 W20G25    29.84R
LAKE CITY      FAIR      77  68  73 W18G29    29.80F
GAINESVILLE      N/A     80  70  71 W17G24    29.80F
WILLISTON      MOSUNNY   81  73  78 SW13G20   29.83F
PALATKA        PTSUNNY   77  77 100 W15       29.81F
MAYPORT NAS    PTSUNNY   79  71  76 SW13      29.76F
JACKSONVILLE   PTSUNNY   80  72  76 SW16      29.75F
JAX NAS        PTSUNNY   79  73  82 W15       29.77F
FERNANDINA BEA FAIR      81  72  74 SW12G23   29.75F
ST AUGUSTINE   CLOUDY    79  72  78 SW13G20   29.79F
PALM COAST     LGT RAIN  73  73 100 SW12      29.82

STATION/POSITION SKY/WX   TEMP    WIND        PRES    WAVE   SWELL
                          AIR SEA DIR/SP/G            HT/PER HT/PER
                          (F)     (DEG/KT/KT) (MB)    (FT/S) (FT/S)
SHELL POINT      NOT AVBL
KEATON BEACH               70     250/ 17/ 19 1010.4F
CEDAR KEY                  72     260/ 10/ 13 1011.4F
FERNANDINA                 73 68  240/  5/  8 1008.3
30.7N   81.3W                 66                N/A     4/ 6
MAYPORT                    75 67  240/ 12/ 17 1008.6
31.4N   80.9W              69 65  180/ 17/ 21 1007.1    5/ 7   2/ 9
ST AUGUSTINE               74 68  240/  9/ 15 1010.6F

$$
FLZ040-043>046-052-053-057-058-063-144-061900-
INTERIOR CENTRAL FLORIDA

CITY           SKY/WX    TMP DP  RH WIND       PRES   REMARKS
OCALA          CLOUDY    79  72  78 W14       29.84F
THE VILLAGES     N/A     79  79 100 SE15G24   29.74F
LEESBURG       CLOUDY    77  72  84 W8G20     29.86R HAZE
SANFORD        CLOUDY    80  74  81 SW20G32   29.84F
ORLANDO EXEC   LGT RAIN  76  72  87 W14       29.84F
ORLANDO INTL   CLOUDY    85  73  67 SW20G29   29.83F THUNDER
KISSIMMEE      CLOUDY    84  76  76 SW18G26   29.85F
WINTER HAVEN   HVY RAIN  78  73  84 SW20G35   29.88F
LAKELAND       LGT RAIN  75  73  94 W16G30    29.88F
BARTOW         PTSUNNY   81  77  89 SW16G24   29.87F
OKEECHOBEE     CLOUDY    82  72  69 SW17G23   29.90F

$$
FLZ041-047-054-059-064-141-147-061900-
EAST CENTRAL FLORIDA

CITY           SKY/WX    TMP DP  RH WIND       PRES   REMARKS
ORMOND BEACH   MOSUNNY   73  72  94 W14G21    29.82F
DAYTONA BEACH  TSTM      74  72  93 W18G29    29.83S
DELAND         TSTM      75  72  88 SW13      29.84S
NEW SMYRNA BEA LGT RAIN  82  73  74 SW23G38   29.81F
JFK SPACE CTR  LGT RAIN  83  73  70 SW17G23   29.82F
TITUSVILLE     PTSUNNY   84  73  70 SW23G29   29.84F
CAPE CANAVERAL PTSUNNY   87  73  64 SW20G26   29.82F
PATRICK AFB    SUNNY     86  74  66 SW20      29.84F
MELBOURNE      LGT RAIN  83  73  72 SW17G30   29.85F
VERO BEACH     PTSUNNY   84  73  69 SW16G26   29.90F
STUART         PTSUNNY   90  73  58 SW12G29   29.92F HX  98

STATION/POSITION SKY/WX   TEMP    WIND        PRES    WAVE   SWELL
                          AIR SEA DIR/SP/G            HT/PER HT/PER
                          (F)     (DEG/KT/KT) (MB)    (FT/S) (FT/S)
TRIDENT PIER               82 73  200/ 14/ 21 1011.1
28.4N   80.5W                 72                N/A     4/ 6

$$
FLZ050-056-061-142-242-148-248-149-249-151-251-155-255-
160-260-061900-
WEST CENTRAL FLORIDA

CITY           SKY/WX    TMP DP  RH WIND       PRES   REMARKS
INVERNESS      CLOUDY    77  75  94 SW5       29.85F FOG
BROOKSVILLE    CLOUDY    79  72  78 MISG        N/A
ST PETE CLEARW CLOUDY    77  74  90 SW13G23   29.88F
TAMPA INTL     TSTM      73  72  96 W12       29.89S FOG
TAMPA EXEC     CLOUDY    79  73  83 W13G21    29.90R
PLANT CITY     CLOUDY    79  75  89 SW18G29   29.90S
MACDILL AFB    LGT RAIN  75  75 100 W16G25    29.88S FOG
PETER O KNIGHT CLOUDY    77  77 100 SW14G23   29.89F FOG
ST PETERSBURG  LGT RAIN  75  74  96 W15       29.87S FOG
SARASOTA       LGT RAIN  73  70  90 W14       29.90R FOG
VENICE         NOT AVBL

STATION/POSITION SKY/WX   TEMP    WIND        PRES    WAVE   SWELL
                          AIR SEA DIR/SP/G            HT/PER HT/PER
                          (F)     (DEG/KT/KT) (MB)    (FT/S) (FT/S)
CLEARWATER BEACH           72 71  250/ 21/ 28 1012.7
MIDDLE TAMPA BAY           75     220/ 17/ 21 1012.4
VENICE                     75 72  170/ 14/ 15 1012.8F

$$
FLZ066-069-070-075>078-162-262-165-265-061900-
SOUTHWEST FLORIDA AND KEYS

CITY           SKY/WX    TMP DP  RH WIND       PRES   REMARKS
PUNTA GORDA    CLOUDY    85  75  72 SW20G31   29.93F
FT MYERS       PTSUNNY   84  76  76 SW16G24   29.92F
SOUTHWEST INTL MOSUNNY   85  74  69 SW26      29.92F
MARCO ISLAND   CLOUDY    82  75  78 S15G26    29.95F
KEY WEST NAS   MOSUNNY   83  76  79 S15       29.97F
KEY WEST INTL  MOSUNNY   82  77  84 S10       29.97F

STATION/POSITION SKY/WX   TEMP    WIND        PRES    WAVE   SWELL
                          AIR SEA DIR/SP/G            HT/PER HT/PER
                          (F)     (DEG/KT/KT) (MB)    (FT/S) (FT/S)
NAPLES                        75              1014.1
26.0N   85.6W              78 78  230/ 14/ 16 1014.4    6/ 6   3/ 7
DRY TORTUGAS               80     190/ 10/ 11 1015.2F
SAND KEY                   79     200/ 10/ 12 1016.2
LONG KEY                   79 78  220/  9/ 10 1015.7F
MOLASSES REEF                     210/ 15       N/A

$$
FLZ067-068-071>074-168-172>174-061900-
SOUTHEAST FLORIDA

CITY           SKY/WX    TMP DP  RH WIND       PRES   REMARKS
W PALM BEACH   CLOUDY    86  70  58 S18G28    29.93F
BOCA RATON     PTSUNNY   86  72  62 SW17G26   29.93F
FT LAUDER-EXEC MOSUNNY   86  68  54 SW16G22   29.94F
FT LAUDERDALE  PTSUNNY   86  70  58 SW14      29.93F
PEMBROKE PINES MOSUNNY   87  70  56 SW17      29.95F
OPA LOCKA      PTSUNNY   87  71  58 SW13G22   29.95F
MIAMI          PTSUNNY   85  71  63 S15G23    29.94F
WEST KENDALL   MOSUNNY   86  72  62 SW12G21   29.95F
HOMESTEAD      MOSUNNY   83  75  76 SW15      29.96F

STATION/POSITION SKY/WX   TEMP    WIND        PRES    WAVE   SWELL
                          AIR SEA DIR/SP/G            HT/PER HT/PER
                          (F)     (DEG/KT/KT) (MB)    (FT/S) (FT/S)
PORT EVERGLADES            81     160/ 11/ 16 1014.3
VIRGINIA KEY               80 83  190/ 12/ 16 1015.6
LAKE WORTH                 80 78  180/ 16/ 20 1013.9
FOWEY ROCKS                80 78  200/ 17/ 20 1016.0F

$$





USA.gov is the U.S. government's official web portal to all federal, state and local government web resources and services.